SCP
0 0 0 0 0 0 0 0 0 0 0 0 0 0 0 0 0 0 0 0 0 0 0 0 0 0 0 0 -0 0 0 0 0 0 0 0 0 0 0 0 0 0 0 0 0
0 0 0 0 0 0 0 0 0 0 0 0 0 0 0 0 0 0 0 0 0 0 0 0 0 0 0 0 0 0 0 0 0 0 0 0 0 0 0 0 0 0 0 0 0
0 0 0 0 0 0 0 0 0 0 0 0 0 0 0 0 0 0 0 0 0 0 0 0 0 0 0 0 0 0 0 0 0 0 0 0 0 0 0 0 0 0 0 0 0
0 0 0 0 0 0 0 0 0 0 0 0 0 0 0 0 0 0 0 0 0 0 0 0 0 0 0 0 0 0 0 0 0 0 0 0 0 0 0 0 0 0 0 0 0
0 0 0 0 0 0 0 0 0 0 0 0 0 0 0 0 0 0 0 0 0 0 0 0 0 0 0 0 0 0 0 0 0 0 0 0 0 0 0 0 0 0 0 0 0
0 0 0 0 0 0 0 0 0 0 0 0 0 0 0 0 0 0 0 0 0 0 0 0 0 0 0 0 0 0 0 0 0 0 0 0 0 0 0 0 0 0 0 0 0
0 0 0 0 0 0 0 0 0 0 0 0 0 0 0 0 0 0 0 0 0 0 0 0 0 0 0 0 0 0 0 0 0 0 0 0 0 0 0 0 0 0 0 0 0
0 0 0 0 0 0 0 0 0 -0 -0 0 0 0 0 0 0 0 0 0 0 0 0 0 0 0 0 0 0 0 0 0 0 0 0 0 0 0 0 0 0 0 0 0 0
0 0 0 0 0 0 0 -0 -0 -0 -0 0 0 0 0 0 -0 0 0 0 0 0 0 0 0 0 0 0 0 0 0 0 0 0 0 0 0 0 0 0 0 0 0 0 0
0 0 0 0 0 0 0 -0 -0 -0 -0 -0 -0 0 -0 0 0 0 0 0 0 0 0 0 0 0 0 0 0 0 0 0 0 0 0 0 0 0 0 0 0 0 0 0 0
0 0 0 0 0 0 0 0 0 -0 -0 0 0 0 0 0 0 0 0 0 0 0 0 0 0 0 0 0 0 0 0 0 -0 0 0 0 0 0 0 0 0 0 0 0 0
0 0 0 0 0 0 -0 0 0 0 0 0 0 0 -0 -0 0 0 0 0 0 0 0 0 0 -0 0 0 0 0 0 -0 0 0 0 0 0 0 0 0 0 0 0 0 0
0 0 0 0 0 -0 0 0 0 0 0 0 0 0 0 0 0 0 0 0 0 0 0 0 0 0 0 0 0 0 0 0 0 0 0 0 0 -0 0 0 0 0 0 0 0
0 0 0 -0 -0 0 -0 0 -0 0 -0 -0 -0 0 0 0 0 -0 0 0 0 0 0 0 0 0 0 0 0 0 0 0 0 0 0 0 0 0 0 0 0 0 0 0 0
0 -0 -0 0 -0 0 0 0 0 0 -0 0 0 0 0 -0 0 0 0 0 0 0 0 0 0 0 0 0 0 -0 0 0 0 0 0 0 0 -0 0 0 0 0 0 0 0
0 -0 -0 0 0 -0 -0 0 0 -0 0 0 0 0 0 0 0 0 -0 -0 0 0 0 0 0 0 0 0 0 0 0 0 0 0 0 0 0 -0 0 0 0 0 0 0 0
0 -0 0 0 0 0 0 0 -0 -0 0 0 0 0 0 -0 0 0 0 0 0 0 0 0 0 0 0 0 0 0 0 0 0 0 0 0 0 0 0 0 0 0 -0 0 0
0 -0 0 0 0 0 0 0 -0 -0 0 -0 0 0 0 0 -0 0 0 0 0 0 0 0 0 0 0 0 0 0 0 0 0 0 0 0 0 0 -0 0 0 0 -0 0 0
0 0 0 0 0 0 0 -0 -0 0 0 -0 -0 0 0 0 0 0 0 0 0 0 0 0 0 0 0 0 0 0 0 0 0 0 0 0 0 0 0 0 0 0 -0 0 0
0 0 0 0 0 0 0 -0 0 0 0 -0 -0 0 -0 -0 0 0 0 0 0 0 0 0 0 0 0 0 0 0 0 0 0 0 0 0 0 0 0 0 0 0 -0 0 0
0 0 0 0 0 0 0 -0 0 0 -0 -0 -0 -0 -0 0 -0 -0 0 0 -0 -0 0 0 0 0 0 0 0 0 0 0 0 0 0 0 0 0 0 0 0 -0 -0 -0 -0
0 0 0 0 0 0 0 0 -0 -0 -0 -0 0 -0 -0 -0 -0 -0 0 0 -0 -0 0 0 0 0 0 -0 0 0 0 0 0 0 0 0 0 0 0 -0 -0 0 0 -0 -0
0 0 0 0 0 0 0 0 0 -0 -0 -0 0 0 -0 -0 0 0 0 0 0 -0 0 0 0 0 0 0 0 0 0 0 0 0 0 0 0 0 0 0 0 0 0 -0 -0
0 0 0 0 0 0 0 0 0 0 -0 -0 -0 -0 -0 -0 -0 0 0 -0 -0 -0 0 0 0 0 0 0 0 0 0 0 0 0 0 0 0 0 0 0 0 0 0 0 -0
0 0 0 0 0 0 0 0 0 0 0 -0 -0 -0 -0 -0 -0 -0 -0 0 0 -0 0 0 0 0 -0 0 0 0 0 0 0 0 0 0 0 0 0 0 0 0 0 0 0
0 0 0 0 0 0 0 0 0 0 0 -0 -0 -0 -0 -0 -0 -0 0 0 0 0 0 0 -0 0 -0 0 0 0 0 0 0 0 0 0 0 0 0 0 0 0 0 0 0
0 0 0 0 0 0 0 0 0 0 0 -0 -0 -0 -0 -0 -0 -0 -0 -0 -0 -0 0 0 0 0 -0 0 0 0 0 0 0 0 0 0 0 0 0 0 0 0 0 0 -0
Wind_Speed_500mb
29 33 34 33 33 34 35 35 36 36 37 38 42 46 52 52 52 42 45 35 28 32 37 19 27 35 31 44 54 40 30 35 44 43 33 34 32 24 11 26 34 26 43 46 45
28 30 33 35 37 37 38 39 38 39 37 36 37 43 46 48 51 56 57 51 49 43 40 37 39 38 48 46 57 47 35 49 45 38 33 45 42 40 38 31 41 42 49 46 32
29 30 32 35 37 40 41 41 42 42 38 39 38 36 33 35 39 43 46 52 62 59 53 45 45 45 58 63 60 60 49 46 54 58 49 47 56 51 48 44 51 49 50 46 50
34 33 35 35 36 36 39 41 43 43 41 40 36 37 31 16 19 5 19 35 42 53 61 55 61 68 58 55 68 57 70 65 63 68 66 60 73 72 62 65 60 53 54 50 56
33 34 35 37 37 38 39 40 41 43 43 43 41 37 30 25 42 37 34 16 19 24 50 65 75 78 67 62 66 66 64 79 80 81 88 89 79 69 82 71 69 70 60 54 55
35 36 38 40 40 40 39 39 40 41 41 42 43 41 26 47 28 30 34 34 28 24 34 57 78 79 84 75 68 78 81 82 89 87 90 72 77 75 73 71 78 74 64 65 60
35 36 39 42 43 44 42 40 38 39 38 40 42 35 42 57 32 31 32 38 41 39 39 42 58 72 78 67 87 87 72 70 73 73 65 62 66 72 79 72 74 78 69 70 57
30 32 36 37 40 42 45 46 44 41 38 37 38 26 33 31 41 49 46 51 48 51 48 38 37 65 75 62 63 66 68 61 64 66 72 61 76 56 71 71 71 57 56 49 51
41 42 44 44 44 42 40 39 36 37 31 26 20 25 45 14 30 32 48 48 44 48 48 52 38 51 52 50 44 54 57 71 62 56 51 58 80 57 68 69 70 81 69 45 57
46 47 48 48 50 52 52 35 34 23 13 8 19 18 37 31 15 10 7 22 35 41 52 49 44 38 41 44 55 61 66 60 65 53 52 65 73 61 62 59 66 82 58 58 67
46 49 52 54 55 54 54 40 12 16 24 28 33 32 51 20 27 36 24 23 27 38 49 61 38 55 87 73 66 58 54 63 64 55 58 61 63 50 48 65 65 71 72 57 73
47 48 52 55 54 49 21 26 23 19 30 53 58 66 62 61 60 53 38 35 36 39 43 48 62 92 52 64 63 67 63 66 57 50 45 54 55 54 50 51 64 75 79 68 67
49 51 57 58 43 18 27 27 15 24 21 59 59 49 39 33 51 50 48 55 47 44 49 62 88 49 65 61 63 66 67 59 60 47 45 46 55 59 53 57 69 78 82 77 76
51 52 59 54 24 25 21 18 20 23 13 40 27 18 22 14 18 26 38 50 53 58 46 56 68 64 65 69 68 65 60 55 50 41 40 42 47 51 41 48 48 62 62 61 58
56 55 46 25 24 16 21 20 18 11 11 8 18 12 9 19 2 12 9 30 42 49 48 66 56 67 72 84 63 75 50 52 52 41 46 53 37 36 41 44 44 42 57 64 61
60 47 25 20 13 17 23 18 13 11 11 5 5 20 17 18 22 13 21 28 31 38 56 62 67 55 78 65 56 60 54 51 40 37 40 49 41 44 44 41 43 41 50 49 50
57 28 22 17 19 24 16 17 10 12 5 14 25 14 27 40 30 20 18 26 26 32 43 58 59 55 58 63 70 56 51 32 34 34 44 33 37 45 38 40 37 30 40 30 11
43 18 22 22 25 18 10 9 11 25 24 36 34 37 37 34 40 26 23 29 36 30 37 45 53 67 56 56 72 64 57 35 58 26 35 46 36 25 32 10 17 38 24 19 22
25 11 9 24 15 8 16 11 17 25 31 28 37 32 40 27 38 19 32 26 8 9 13 30 56 59 67 49 52 78 56 70 48 39 27 30 33 37 35 32 16 20 39 27 27
19 11 9 20 16 10 9 15 22 23 25 33 39 23 28 41 17 26 29 8 6 15 9 29 41 58 54 59 66 64 58 44 40 51 39 27 23 15 10 20 23 23 33 34 36
18 7 8 15 10 16 9 20 29 34 30 20 39 39 36 23 25 34 7 12 11 24 18 38 11 40 66 62 63 50 49 57 43 38 28 24 25 15 8 8 29 28 38 39 45
13 6 10 12 9 8 14 33 40 42 35 36 22 32 34 31 26 21 18 10 8 20 19 24 13 30 46 57 62 63 58 61 35 49 35 23 7 9 19 19 27 17 27 42 46
21 8 3 8 8 15 29 36 31 31 32 33 21 27 34 32 19 17 16 17 14 12 9 13 22 27 12 31 60 61 65 53 57 36 38 21 11 14 15 7 10 20 33 43 48
18 7 4 6 14 16 27 30 29 18 36 32 37 12 18 30 22 15 17 3 18 27 31 16 24 37 12 21 45 60 68 60 55 33 36 35 27 26 26 21 13 26 37 44 46
10 12 11 10 18 21 29 33 33 23 18 40 22 21 27 33 34 19 17 20 9 13 10 8 35 45 10 42 54 55 61 54 61 44 33 40 23 23 32 28 22 29 34 39 44
16 14 22 38 19 23 21 27 29 37 19 25 27 39 31 31 32 31 24 18 13 4 11 11 23 39 19 38 54 39 58 50 54 41 38 27 33 20 31 28 22 24 31 37 41
12 14 11 26 16 12 18 28 40 39 22 29 32 35 31 30 40 50 49 40 33 29 22 18 19 7 12 36 48 32 46 57 44 50 34 23 19 21 9 11 8 24 7 34 38
Wind_Direction_500mb
337 338 337 336 334 331 328 325 324 319 310 297 287 281 278 277 275 274 262 246 234 240 242 227 209 213 220 230 227 231 255 252 248 251 265 271 247 259 241 286 294 279 294 291 289
329 329 328 328 328 329 327 326 325 322 323 315 304 296 286 283 282 276 257 246 243 239 234 215 220 217 222 228 230 230 237 243 261 265 265 273 283 291 276 261 273 273 284 286 297
324 322 320 321 323 325 325 322 321 319 321 321 322 319 313 296 302 271 255 245 245 240 233 229 232 222 231 229 225 230 241 253 262 269 271 271 273 275 276 273 278 288 291 292 290
329 326 321 317 313 312 314 318 317 314 317 317 316 316 316 305 256 15 249 231 236 239 227 226 230 234 232 234 232 241 240 248 260 264 272 273 276 282 268 271 277 287 285 285 287
336 332 328 323 318 313 308 306 306 310 314 313 312 310 313 254 240 287 289 269 249 256 229 220 222 226 236 232 240 242 245 253 256 261 267 274 277 275 272 269 275 282 282 281 277
341 337 333 330 327 322 317 312 306 302 301 302 303 302 284 264 255 255 253 257 249 244 237 227 231 231 239 240 240 250 256 256 261 260 265 271 270 264 264 262 267 278 275 274 275
342 338 333 331 328 326 324 318 310 301 292 288 285 281 270 256 261 265 264 255 247 247 247 240 239 242 241 249 245 254 258 261 260 264 263 265 267 263 266 266 272 273 271 267 267
345 338 329 326 324 325 323 320 312 300 291 278 272 260 259 266 270 264 258 257 253 244 244 244 251 244 245 258 252 249 253 256 252 252 252 254 259 264 274 270 268 269 263 265 268
345 340 337 333 330 329 322 321 313 301 289 277 267 226 265 268 250 264 243 247 247 243 240 241 245 245 236 241 252 238 245 240 253 251 252 248 258 255 263 268 265 267 266 271 268
344 340 335 333 329 330 325 328 315 296 324 265 243 236 251 256 241 267 232 247 247 236 226 221 224 234 232 221 228 228 239 245 255 253 243 243 256 263 265 265 271 273 260 255 273
342 339 337 333 332 330 327 340 297 247 225 257 285 230 282 252 268 272 270 252 242 232 222 204 208 218 219 218 235 242 246 247 250 250 237 255 270 263 257 263 264 267 266 262 268
340 337 336 332 333 331 354 326 322 303 296 277 269 262 259 264 270 255 250 240 231 229 219 217 218 222 221 230 228 242 249 249 258 258 256 258 262 268 261 263 263 268 271 268 268
339 333 332 330 333 357 320 311 299 312 279 283 267 257 251 237 245 245 235 230 240 224 226 221 226 227 226 230 232 231 236 245 254 262 262 267 270 264 264 265 270 266 269 271 266
336 330 329 326 329 316 322 321 321 317 281 265 196 215 195 231 239 232 234 229 230 237 235 234 238 231 226 231 227 235 228 241 253 259 256 249 266 258 263 264 259 264 265 260 259
340 331 336 342 316 335 313 317 310 292 278 95 126 136 213 222 25 131 236 220 240 237 230 241 229 232 240 226 228 243 236 236 238 248 263 255 259 270 270 267 269 265 259 259 259
342 339 353 5 317 326 316 306 289 239 255 22 43 341 264 218 254 251 256 221 252 241 252 244 246 235 232 243 228 238 235 241 237 240 248 246 252 263 267 269 268 263 255 251 242
345 351 5 355 317 312 305 290 254 262 341 22 338 317 303 293 278 216 262 272 243 214 238 243 247 247 242 220 235 224 222 221 228 228 242 238 243 261 279 276 271 275 249 259 115
347 14 332 340 324 312 302 260 265 352 1 342 337 309 287 283 276 260 252 253 250 286 287 226 227 233 232 227 214 223 212 210 211 216 235 224 243 261 250 266 284 238 244 162 180
1 341 326 336 343 317 288 274 350 354 338 323 317 306 289 284 243 271 260 279 333 14 290 291 236 224 228 223 237 211 217 217 240 238 249 240 216 233 251 252 242 222 194 156 166
354 313 292 341 322 304 275 294 339 356 339 316 308 289 317 316 263 262 270 126 280 276 252 285 277 222 222 217 238 232 210 207 222 243 234 245 216 242 172 206 180 177 178 161 161
343 300 337 341 338 295 295 312 335 335 321 319 313 312 310 318 306 285 253 151 213 290 260 279 263 257 215 207 214 216 211 212 218 227 230 236 240 201 182 214 180 177 160 158 165
308 283 355 345 312 254 292 335 309 301 304 305 322 296 305 312 295 289 278 308 213 296 293 261 289 257 225 218 215 215 214 204 220 213 234 254 158 88 185 200 188 169 134 159 163
309 283 265 358 339 324 324 312 303 328 317 310 303 313 316 311 297 286 340 37 333 317 315 3 237 253 257 249 196 220 209 205 219 222 210 227 153 161 159 125 165 128 150 156 158
310 296 130 308 330 305 324 310 319 329 323 315 305 317 297 311 310 275 335 107 325 275 273 294 260 256 247 243 197 213 203 206 201 217 197 225 120 174 156 143 148 127 148 156 161
327 25 350 300 327 323 301 288 302 335 296 306 301 296 289 316 314 339 325 302 328 256 249 262 247 242 271 294 301 210 206 198 194 206 201 197 193 164 125 104 105 137 156 160 166
335 342 330 299 292 300 308 305 329 330 325 311 323 318 311 298 311 309 304 306 276 328 245 262 273 253 277 274 281 209 213 202 196 199 222 183 193 164 131 129 129 130 171 175 175
324 323 298 294 282 303 301 321 311 312 313 295 301 307 312 315 319 306 299 287 272 288 289 296 280 229 237 257 260 212 202 196 200 195 213 192 196 204 153 142 124 78 120 189 183
Wind_Speed_850mb
29 33 34 33 33 34 35 35 36 36 37 38 42 46 52 52 52 42 45 35 28 32 37 19 27 35 31 44 54 40 30 35 44 43 33 34 32 24 11 26 34 26 43 46 45
28 30 33 35 37 37 38 39 38 39 37 36 37 43 46 48 51 56 57 51 49 43 40 37 39 38 48 46 57 47 35 49 45 38 33 45 42 40 38 31 41 42 49 46 32
29 30 32 35 37 40 41 41 42 42 38 39 38 36 33 35 39 43 46 52 62 59 53 45 45 45 58 63 60 60 49 46 54 58 49 47 56 51 48 44 51 49 50 46 50
34 33 35 35 36 36 39 41 43 43 41 40 36 37 31 16 19 5 19 35 42 53 61 55 61 68 58 55 68 57 70 65 63 68 66 60 73 72 62 65 60 53 54 50 56
33 34 35 37 37 38 39 40 41 43 43 43 41 37 30 25 42 37 34 16 19 24 50 65 75 78 67 62 66 66 64 79 80 81 88 89 79 69 82 71 69 70 60 54 55
35 36 38 40 40 40 39 39 40 41 41 42 43 41 26 47 28 30 34 34 28 24 34 57 78 79 84 75 68 78 81 82 89 87 90 72 77 75 73 71 78 74 64 65 60
35 36 39 42 43 44 42 40 38 39 38 40 42 35 42 57 32 31 32 38 41 39 39 42 58 72 78 67 87 87 72 70 73 73 65 62 66 72 79 72 74 78 69 70 57
30 32 36 37 40 42 45 46 44 41 38 37 38 26 33 31 41 49 46 51 48 51 48 38 37 65 75 62 63 66 68 61 64 66 72 61 76 56 71 71 71 57 56 49 51
41 42 44 44 44 42 40 39 36 37 31 26 20 25 45 14 30 32 48 48 44 48 48 52 38 51 52 50 44 54 57 71 62 56 51 58 80 57 68 69 70 81 69 45 57
46 47 48 48 50 52 52 35 34 23 13 8 19 18 37 31 15 10 7 22 35 41 52 49 44 38 41 44 55 61 66 60 65 53 52 65 73 61 62 59 66 82 58 58 67
46 49 52 54 55 54 54 40 12 16 24 28 33 32 51 20 27 36 24 23 27 38 49 61 38 55 87 73 66 58 54 63 64 55 58 61 63 50 48 65 65 71 72 57 73
47 48 52 55 54 49 21 26 23 19 30 53 58 66 62 61 60 53 38 35 36 39 43 48 62 92 52 64 63 67 63 66 57 50 45 54 55 54 50 51 64 75 79 68 67
49 51 57 58 43 18 27 27 15 24 21 59 59 49 39 33 51 50 48 55 47 44 49 62 88 49 65 61 63 66 67 59 60 47 45 46 55 59 53 57 69 78 82 77 76
51 52 59 54 24 25 21 18 20 23 13 40 27 18 22 14 18 26 38 50 53 58 46 56 68 64 65 69 68 65 60 55 50 41 40 42 47 51 41 48 48 62 62 61 58
56 55 46 25 24 16 21 20 18 11 11 8 18 12 9 19 2 12 9 30 42 49 48 66 56 67 72 84 63 75 50 52 52 41 46 53 37 36 41 44 44 42 57 64 61
60 47 25 20 13 17 23 18 13 11 11 5 5 20 17 18 22 13 21 28 31 38 56 62 67 55 78 65 56 60 54 51 40 37 40 49 41 44 44 41 43 41 50 49 50
57 28 22 17 19 24 16 17 10 12 5 14 25 14 27 40 30 20 18 26 26 32 43 58 59 55 58 63 70 56 51 32 34 34 44 33 37 45 38 40 37 30 40 30 11
43 18 22 22 25 18 10 9 11 25 24 36 34 37 37 34 40 26 23 29 36 30 37 45 53 67 56 56 72 64 57 35 58 26 35 46 36 25 32 10 17 38 24 19 22
25 11 9 24 15 8 16 11 17 25 31 28 37 32 40 27 38 19 32 26 8 9 13 30 56 59 67 49 52 78 56 70 48 39 27 30 33 37 35 32 16 20 39 27 27
19 11 9 20 16 10 9 15 22 23 25 33 39 23 28 41 17 26 29 8 6 15 9 29 41 58 54 59 66 64 58 44 40 51 39 27 23 15 10 20 23 23 33 34 36
18 7 8 15 10 16 9 20 29 34 30 20 39 39 36 23 25 34 7 12 11 24 18 38 11 40 66 62 63 50 49 57 43 38 28 24 25 15 8 8 29 28 38 39 45
13 6 10 12 9 8 14 33 40 42 35 36 22 32 34 31 26 21 18 10 8 20 19 24 13 30 46 57 62 63 58 61 35 49 35 23 7 9 19 19 27 17 27 42 46
21 8 3 8 8 15 29 36 31 31 32 33 21 27 34 32 19 17 16 17 14 12 9 13 22 27 12 31 60 61 65 53 57 36 38 21 11 14 15 7 10 20 33 43 48
18 7 4 6 14 16 27 30 29 18 36 32 37 12 18 30 22 15 17 3 18 27 31 16 24 37 12 21 45 60 68 60 55 33 36 35 27 26 26 21 13 26 37 44 46
10 12 11 10 18 21 29 33 33 23 18 40 22 21 27 33 34 19 17 20 9 13 10 8 35 45 10 42 54 55 61 54 61 44 33 40 23 23 32 28 22 29 34 39 44
16 14 22 38 19 23 21 27 29 37 19 25 27 39 31 31 32 31 24 18 13 4 11 11 23 39 19 38 54 39 58 50 54 41 38 27 33 20 31 28 22 24 31 37 41
12 14 11 26 16 12 18 28 40 39 22 29 32 35 31 30 40 50 49 40 33 29 22 18 19 7 12 36 48 32 46 57 44 50 34 23 19 21 9 11 8 24 7 34 38
Wind_Direction_850mb
337 338 337 336 334 331 328 325 324 319 310 297 287 281 278 277 275 274 262 246 234 240 242 227 209 213 220 230 227 231 255 252 248 251 265 271 247 259 241 286 294 279 294 291 289
329 329 328 328 328 329 327 326 325 322 323 315 304 296 286 283 282 276 257 246 243 239 234 215 220 217 222 228 230 230 237 243 261 265 265 273 283 291 276 261 273 273 284 286 297
324 322 320 321 323 325 325 322 321 319 321 321 322 319 313 296 302 271 255 245 245 240 233 229 232 222 231 229 225 230 241 253 262 269 271 271 273 275 276 273 278 288 291 292 290
329 326 321 317 313 312 314 318 317 314 317 317 316 316 316 305 256 15 249 231 236 239 227 226 230 234 232 234 232 241 240 248 260 264 272 273 276 282 268 271 277 287 285 285 287
336 332 328 323 318 313 308 306 306 310 314 313 312 310 313 254 240 287 289 269 249 256 229 220 222 226 236 232 240 242 245 253 256 261 267 274 277 275 272 269 275 282 282 281 277
341 337 333 330 327 322 317 312 306 302 301 302 303 302 284 264 255 255 253 257 249 244 237 227 231 231 239 240 240 250 256 256 261 260 265 271 270 264 264 262 267 278 275 274 275
342 338 333 331 328 326 324 318 310 301 292 288 285 281 270 256 261 265 264 255 247 247 247 240 239 242 241 249 245 254 258 261 260 264 263 265 267 263 266 266 272 273 271 267 267
345 338 329 326 324 325 323 320 312 300 291 278 272 260 259 266 270 264 258 257 253 244 244 244 251 244 245 258 252 249 253 256 252 252 252 254 259 264 274 270 268 269 263 265 268
345 340 337 333 330 329 322 321 313 301 289 277 267 226 265 268 250 264 243 247 247 243 240 241 245 245 236 241 252 238 245 240 253 251 252 248 258 255 263 268 265 267 266 271 268
344 340 335 333 329 330 325 328 315 296 324 265 243 236 251 256 241 267 232 247 247 236 226 221 224 234 232 221 228 228 239 245 255 253 243 243 256 263 265 265 271 273 260 255 273
342 339 337 333 332 330 327 340 297 247 225 257 285 230 282 252 268 272 270 252 242 232 222 204 208 218 219 218 235 242 246 247 250 250 237 255 270 263 257 263 264 267 266 262 268
340 337 336 332 333 331 354 326 322 303 296 277 269 262 259 264 270 255 250 240 231 229 219 217 218 222 221 230 228 242 249 249 258 258 256 258 262 268 261 263 263 268 271 268 268
339 333 332 330 333 357 320 311 299 312 279 283 267 257 251 237 245 245 235 230 240 224 226 221 226 227 226 230 232 231 236 245 254 262 262 267 270 264 264 265 270 266 269 271 266
336 330 329 326 329 316 322 321 321 317 281 265 196 215 195 231 239 232 234 229 230 237 235 234 238 231 226 231 227 235 228 241 253 259 256 249 266 258 263 264 259 264 265 260 259
340 331 336 342 316 335 313 317 310 292 278 95 126 136 213 222 25 131 236 220 240 237 230 241 229 232 240 226 228 243 236 236 238 248 263 255 259 270 270 267 269 265 259 259 259
342 339 353 5 317 326 316 306 289 239 255 22 43 341 264 218 254 251 256 221 252 241 252 244 246 235 232 243 228 238 235 241 237 240 248 246 252 263 267 269 268 263 255 251 242
345 351 5 355 317 312 305 290 254 262 341 22 338 317 303 293 278 216 262 272 243 214 238 243 247 247 242 220 235 224 222 221 228 228 242 238 243 261 279 276 271 275 249 259 115
347 14 332 340 324 312 302 260 265 352 1 342 337 309 287 283 276 260 252 253 250 286 287 226 227 233 232 227 214 223 212 210 211 216 235 224 243 261 250 266 284 238 244 162 180
1 341 326 336 343 317 288 274 350 354 338 323 317 306 289 284 243 271 260 279 333 14 290 291 236 224 228 223 237 211 217 217 240 238 249 240 216 233 251 252 242 222 194 156 166
354 313 292 341 322 304 275 294 339 356 339 316 308 289 317 316 263 262 270 126 280 276 252 285 277 222 222 217 238 232 210 207 222 243 234 245 216 242 172 206 180 177 178 161 161
343 300 337 341 338 295 295 312 335 335 321 319 313 312 310 318 306 285 253 151 213 290 260 279 263 257 215 207 214 216 211 212 218 227 230 236 240 201 182 214 180 177 160 158 165
308 283 355 345 312 254 292 335 309 301 304 305 322 296 305 312 295 289 278 308 213 296 293 261 289 257 225 218 215 215 214 204 220 213 234 254 158 88 185 200 188 169 134 159 163
309 283 265 358 339 324 324 312 303 328 317 310 303 313 316 311 297 286 340 37 333 317 315 3 237 253 257 249 196 220 209 205 219 222 210 227 153 161 159 125 165 128 150 156 158
310 296 130 308 330 305 324 310 319 329 323 315 305 317 297 311 310 275 335 107 325 275 273 294 260 256 247 243 197 213 203 206 201 217 197 225 120 174 156 143 148 127 148 156 161
327 25 350 300 327 323 301 288 302 335 296 306 301 296 289 316 314 339 325 302 328 256 249 262 247 242 271 294 301 210 206 198 194 206 201 197 193 164 125 104 105 137 156 160 166
335 342 330 299 292 300 308 305 329 330 325 311 323 318 311 298 311 309 304 306 276 328 245 262 273 253 277 274 281 209 213 202 196 199 222 183 193 164 131 129 129 130 171 175 175
324 323 298 294 282 303 301 321 311 312 313 295 301 307 312 315 319 306 299 287 272 288 289 296 280 229 237 257 260 212 202 196 200 195 213 192 196 204 153 142 124 78 120 189 183